Weather History for Punta Gorda, FL

Change the Weather History Date:

Monday, January 21, 2013

  Actual Average Record
Temperature  
Mean Temperature 68 °F -  
Max Temperature 75 °F 71 °F 82 °F (2006)
Min Temperature 61 °F 47 °F 32 °F (2001)
Cooling Degree Days 3    
Growing Degree Days 18 (Base 50)    
Moisture  
Dew Point 61 °F    
Average Humidity 77    
Maximum Humidity 90    
Minimum Humidity 62    
Precipitation  
Precipitation 0.00 in - - ()
Sea Level Pressure  
Sea Level Pressure 30.08 in    
Wind  
Wind Speed 6 mph (NNW)    
Max Wind Speed 14 mph    
Max Gust Speed -    
Visibility 10 miles    
Events      
Averages and records for this station are not official NWS values.
T = Trace of Precipitation, MM = Missing Value Source: NWS Daily Summary

Daily Weather History Graph

Daily Weather History Graph

Search for Another Location

Airport:

Trip Planner

Search our weather history database for the weather conditions in past years. The results will help you decide how hot, cold, wet, or windy it might be!

Date:

Astronomy

Jan. 21, 2013 Rise Set
Actual Time 7:17 AM EST 6:01 PM EST
Civil Twilight 6:52 AM EST 6:26 PM EST
Nautical Twilight 6:24 AM EST 6:54 PM EST
Astronomical Twilight 5:56 AM EST 7:22 PM EST
Moon 1:42 PM EST (1/21) 2:43 AM EST (1/21)
Length of Visible Light 11h 33m
Length of Day
10h 44m
Waxing Gibbous, 75% of the Moon is Illuminated
Jan 21
Waxing Gibbous
Jan 26
Full
Feb 3
Last Quarter
Feb 10
New
Feb 17
First Quarter

Hourly Weather History & Observations

Time (EST) Temp. Dew Point Humidity Pressure Visibility Wind Dir Wind Speed Gust Speed Precip Events Conditions
12:53 AM 64.0 °F 60.1 °F 87% 30.09 in 10.0 mi NE 9.2 mph - N/A   Overcast
1:53 AM 64.0 °F 60.1 °F 87% 30.09 in 10.0 mi NE 8.1 mph - N/A   Overcast
2:53 AM 63.0 °F 59.0 °F 87% 30.08 in 10.0 mi NE 3.5 mph - N/A   Overcast
3:53 AM 63.0 °F 59.0 °F 87% 30.06 in 10.0 mi NE 5.8 mph - N/A   Overcast
4:53 AM 62.1 °F 57.9 °F 86% 30.05 in 10.0 mi ENE 3.5 mph - N/A   Overcast
5:53 AM 61.0 °F 57.9 °F 90% 30.06 in 10.0 mi NNE 4.6 mph - N/A   Mostly Cloudy
7:53 AM 62.1 °F 59.0 °F 90% 30.09 in 10.0 mi NE 3.5 mph - N/A   Mostly Cloudy
8:53 AM 64.9 °F 60.1 °F 84% 30.10 in 10.0 mi East 3.5 mph - N/A   Mostly Cloudy
9:00 AM 64.4 °F 60.8 °F 88% 30.10 in 10.0 mi ENE 4.6 mph - N/A   Overcast
9:17 AM 66.2 °F 60.8 °F 83% 30.10 in 10.0 mi East 3.5 mph - N/A   Mostly Cloudy
9:53 AM 68.0 °F 61.0 °F 78% 30.12 in 10.0 mi Calm Calm - N/A   Overcast
10:13 AM 68.0 °F 60.8 °F 78% 30.12 in 10.0 mi Calm Calm - N/A   Overcast
10:24 AM 69.8 °F 62.6 °F 78% 30.12 in 10.0 mi SSW 3.5 mph - N/A   Overcast
10:53 AM 70.0 °F 62.1 °F 76% 30.13 in 10.0 mi West 4.6 mph - N/A   Overcast
11:53 AM 71.1 °F 63.0 °F 75% 30.11 in 10.0 mi Variable 5.8 mph - N/A   Overcast
12:46 PM 75.2 °F 62.6 °F 65% 30.08 in 10.0 mi NNW 5.8 mph - N/A   Scattered Clouds
12:53 PM 73.9 °F 63.0 °F 68% 30.07 in 10.0 mi NW 6.9 mph - N/A   Scattered Clouds
1:00 PM 75.2 °F 62.6 °F 65% 30.06 in 10.0 mi North 5.8 mph - N/A   Mostly Cloudy
1:07 PM 75.2 °F 62.6 °F 65% 30.06 in 10.0 mi NNW 4.6 mph - N/A   Scattered Clouds
1:53 PM 75.9 °F 63.0 °F 64% 30.04 in 10.0 mi Variable 3.5 mph - N/A   Scattered Clouds
2:53 PM 75.9 °F 62.1 °F 62% 30.04 in 10.0 mi NW 4.6 mph - N/A   Scattered Clouds
3:16 PM 73.4 °F 64.4 °F 73% 30.03 in 10.0 mi WSW 10.4 mph - N/A   Mostly Cloudy
3:29 PM 75.2 °F 64.4 °F 69% 30.03 in 10.0 mi WSW 9.2 mph - N/A   Scattered Clouds
3:53 PM 73.9 °F 63.0 °F 68% 30.04 in 10.0 mi WNW 13.8 mph - N/A   Mostly Cloudy
4:05 PM 75.2 °F 62.6 °F 65% 30.03 in 10.0 mi WNW 13.8 mph - N/A   Mostly Cloudy
4:13 PM 75.2 °F 62.6 °F 65% 30.03 in 10.0 mi WNW 11.5 mph - N/A   Partly Cloudy
4:53 PM 73.0 °F 62.1 °F 68% 30.04 in 10.0 mi WNW 11.5 mph - N/A   Clear
5:53 PM 70.0 °F 61.0 °F 73% 30.06 in 10.0 mi WNW 9.2 mph - N/A   Clear
6:53 PM 68.0 °F 60.1 °F 76% 30.07 in 10.0 mi NW 8.1 mph - N/A   Clear
7:53 PM 66.0 °F 60.1 °F 81% 30.08 in 10.0 mi NW 6.9 mph - N/A   Clear
8:53 PM 64.0 °F 59.0 °F 84% 30.08 in 10.0 mi NW 5.8 mph - N/A   Clear
9:53 PM 63.0 °F 59.0 °F 87% 30.10 in 10.0 mi NNW 9.2 mph - N/A   Clear
10:53 PM 61.0 °F 57.0 °F 87% 30.11 in 10.0 mi NNW 10.4 mph - N/A   Clear
11:53 PM 61.0 °F 55.0 °F 81% 30.10 in 10.0 mi North 6.9 mph - N/A   Clear